Regional Weather Roundup
Issued by NWS

Home | Current Version | Previous Version | Text Only | Print | Product List | Glossary On
Versions: 1 2 3 4 5 6 7 8 9 10 11 12 13 14 15 16 17 18 19 20 21 22 23 24 25 26 27 28 29 30 31 32 33 34 35 36 37 38 39 40 41 42 43 44 45 46 47 48 49 50
000
ASUS43 KLSX 222107
RWRMO

WEATHER SUMMARY FOR MISSOURI
NATIONAL WEATHER SERVICE SPRINGFIELD MO
400 PM CDT TUE AUG 22 2017

NOTE: "FAIR" INDICATES FEW OR NO CLOUDS BELOW 12,000 FEET WITH NO
       SIGNIFICANT WEATHER AND/OR OBSTRUCTIONS TO VISIBILITY.
       CURRENT SKY AND/OR WEATHER CONDITIONS ARE NOT AVAILABLE FOR
       CHILLICOTHE AND FARMINGTON.

MOZ001>031-035>038-043-044-053-054-222200-
...NORTHERN AND WESTERN MISSOURI...

CITY           SKY/WX    TMP DP  RH WIND       PRES   REMARKS
KANSAS CTY INT MOSUNNY   79  63  57 N9        30.11F
KANSAS C DTWN  MOSUNNY   78  65  63 N10       30.08F
LEE`S SUMMIT     N/A    N/A N/A N/A MISG        N/A
ST JOSEPH      SUNNY     78  60  53 NW14      30.11F
CHILLICOTHE      N/A     81  55  40 VRB7      30.09F
KIRKSVILLE     SUNNY     80  53  39 NW10      30.08S

$$
MOZ066>068-077>081-088>096-101>105-222200-
...SOUTHWEST MISSOURI...

CITY           SKY/WX    TMP DP  RH WIND       PRES   REMARKS
SPRINGFIELD    CLOUDY    81  70  69 NW8       30.06F
JOPLIN         CLOUDY    83  75  77 N12       30.06F HX  90
BRANSON        PTSUNNY   81  72  74 VRB3      30.07F

$$
MOZ032>034-039>042-045>050-055>058-069>072-222200-
...CENTRAL MISSOURI...

CITY           SKY/WX    TMP DP  RH WIND       PRES   REMARKS
COLUMBIA       SUNNY     80  65  59 NW13      30.04F
JEFFERSON CITY SUNNY     81  68  64 NW13      30.03F
ROLLA          CLOUDY    79  69  71 NW9       30.06S
SEDALIA        MOSUNNY   84  68  58 N12       30.08F
WHITEMAN AFB   MOSUNNY   80  67  63 N12       30.06F
WARRENSBURG    SUNNY     79  63  57 N10       30.07F
OSAGE BEACH    PTSUNNY   80  68  66 N7        30.06F

$$
MOZ051-052-059>065-222200-
...EAST CENTRAL MISSOURI...

CITY           SKY/WX    TMP DP  RH WIND       PRES   REMARKS
ST LOUIS INTL  PTSUNNY   81  68  64 NW13      29.99F
SPIRIT OF STL  MOSUNNY   82  68  62 NW12      29.98F
ST CHARLES     MOSUNNY   83  67  58 NW14      29.98F

$$
MOZ072>076-082>087-097>100-106>115-222200-
...SOUTH CENTRAL AND SOUTHEAST MISSOURI...

CITY           SKY/WX    TMP DP  RH WIND       PRES   REMARKS
CAPE GIRARDEAU CLOUDY    83  70  64 N13       29.97R
FARMINGTON     PTSUNNY   78  70  76 NW9G18    30.01F
POPLAR BLUFF   CLOUDY    85  72  65 N12       29.97S HX  91
WEST PLAINS    CLOUDY    82  69  64 NW7       30.06F

$$



USA.gov is the U.S. government's official web portal to all federal, state and local government web resources and services.